This is the latest recevied weather packets stored in our database for station/object KG7BDA. If no packets are shown the sender has not sent any weather packets the latest 1 day(s).
| Time | Temp. | Humidity | Pressure | Rain* | Wind** | Luminosity | Snow |
|---|---|---|---|---|---|---|---|
| 1778017520 | 22.22° C | 34% | 1010 hPa | 0 mm | 6.71 m/s, 308° | - | - |
| 1778017160 | 22.22° C | 33% | 1010.1 hPa | 0 mm | 6.71 m/s, 321° | - | - |
| 1778016801 | 22.22° C | 33% | 1010.1 hPa | 0 mm | 8.49 m/s, 338° | - | - |
| 1778016441 | 22.22° C | 34% | 1010.3 hPa | 0 mm | 6.26 m/s, 308° | - | - |
| 1778016080 | 21.67° C | 34% | 1010.3 hPa | 0 mm | 4.92 m/s, 311° | - | - |
| 1778015720 | 21.67° C | 35% | 1010.3 hPa | 0 mm | 4.02 m/s, 299° | - | - |
| 1778015361 | 21.67° C | 33% | 1010.3 hPa | 0 mm | 7.6 m/s, 303° | - | - |
| 1778015001 | 21.67° C | 33% | 1010.3 hPa | 0 mm | 8.05 m/s, 330° | - | - |
| 1778014640 | 22.22° C | 33% | 1010.5 hPa | 0 mm | 8.05 m/s, 328° | - | - |
| 1778014323 | 21.67° C | 34% | 1010.5 hPa | 0 mm | 6.71 m/s, 341° | - | - |
| 1778014280 | 21.67° C | 34% | 1010.5 hPa | 0 mm | 6.71 m/s, 341° | - | - |
| 1778013561 | 21.11° C | 35% | 1010.7 hPa | 0 mm | 6.71 m/s, 317° | - | - |
| 1778013201 | 21.11° C | 33% | 1010.7 hPa | 0 mm | 5.81 m/s, 322° | - | - |
| 1778012840 | 21.11° C | 35% | 1010.7 hPa | 0 mm | 5.81 m/s, 322° | - | - |
| 1778012480 | 21.11° C | 36% | 1010.8 hPa | 0 mm | 4.02 m/s, 288° | - | - |
| 1778012121 | 20.56° C | 37% | 1010.9 hPa | 0 mm | 5.36 m/s, 334° | - | - |
| 1778011761 | 20.56° C | 35% | 1011.1 hPa | 0 mm | 6.26 m/s, 318° | - | - |
| 1778011400 | 20.56° C | 37% | 1010.9 hPa | 0 mm | 6.26 m/s, 283° | - | - |
| 1778011151 | 20.56° C | 36% | 1011 hPa | 0 mm | 6.26 m/s, 328° | - | - |
| 1778011040 | 20.56° C | 36% | 1011 hPa | 0 mm | 6.26 m/s, 328° | - | - |
| 1778010725 | 21.11° C | 36% | 1011 hPa | 0 mm | 5.81 m/s, 295° | - | - |
| 1778010681 | 21.11° C | 36% | 1011 hPa | 0 mm | 5.81 m/s, 295° | - | - |
| 1778010321 | 20.56° C | 36% | 1011.2 hPa | 0 mm | 5.36 m/s, 302° | - | - |
| 1778009960 | 20.56° C | 39% | 1011.1 hPa | 0 mm | 4.92 m/s, 280° | - | - |
| 1778009447 | 20.56° C | 37% | 1011.2 hPa | 0 mm | 5.81 m/s, 299° | - | - |
* Rain latest hour (hover to see other rain measurements)
** Current wind speed in m/s (hover to see current wind gust speed)